FW1542 Weather Reports


time (UTC)temp
C
wind
direction
speed
KPH
gust
KPH
rain 1hr
cm
rain 24hr
cm
rain mn
cm
humidity
%
barometer
mb
20260901203121 36 217 0.0 12.9 0.00 0.00 0.00 44 1015.1
20260901203109 36 0 1.6 12.9 0.00 0.00 0.00 43 1013.5
20260901201554 35 105 4.8 9.7 0.00 0.00 0.00 48 1015.3
20260901201550 35 69 4.8 14.5 0.00 0.00 0.00 48 1013.8
20260901200052 35 119 0.0 9.7 0.00 0.00 0.00 48 1015.7
20260901200050 35 0 0.0 14.5 0.00 0.00 0.00 47 1014.0
20260901194651 35 103 4.8 14.5 0.00 0.00 0.00 46 1015.8
20260901194552 35 171 1.6 14.5 0.00 0.00 0.00 46 1014.1
20260901193111 35 252 6.4 16.1 0.00 0.00 0.00 48 1014.1
20260901193048 35 252 3.2 16.1 0.00 0.00 0.00 49 1015.9
20260901191553 35 121 4.8 16.1 0.00 0.00 0.00 47 1014.4
20260901191546 35 109 3.2 16.1 0.00 0.00 0.00 47 1016.2
20260901190106 35 147 6.4 16.1 0.00 0.00 0.00 49 1014.6
20260901190048 35 128 4.8 16.1 0.00 0.00 0.00 50 1016.3
20260901184551 35 157 3.2 14.5 0.00 0.00 0.00 48 1014.9
20260901184546 35 153 3.2 12.9 0.00 0.00 0.00 49 1016.7
20260901183056 34 189 1.6 11.3 0.00 0.00 0.00 50 1015.2
20260901183037 34 180 1.6 9.7 0.00 0.00 0.00 50 1016.8
20260901181603 33 137 4.8 19.3 0.00 0.00 0.00 52 1015.4
20260901181535 33 137 3.2 17.7 0.00 0.00 0.00 52 1016.9
20260901180059 34 0 1.6 12.9 0.00 0.00 0.00 51 1015.8
20260901180037 34 46 1.6 12.9 0.00 0.00 0.00 51 1017.3
20260901174604 34 146 3.2 17.7 0.00 0.00 0.00 51 1016.0
20260901174529 34 136 6.4 17.7 0.00 0.00 0.00 51 1017.5
20260901173053 33 86 4.8 14.5 0.00 0.00 0.00 52 1016.3
20260901173026 33 89 3.2 14.5 0.00 0.00 0.00 52 1017.7
20260901171612 33 134 6.4 16.1 0.00 0.00 0.00 54 1016.4
20260901171526 33 121 6.4 14.5 0.00 0.00 0.00 54 1017.9
20260901170104 33 115 6.4 12.9 0.00 0.00 0.00 55 1016.4
20260901170024 33 126 8.0 12.9 0.00 0.00 0.00 55 1018.1
20260901164554 32 162 1.6 14.5 0.00 0.00 0.00 58 1016.5
20260901164520 32 163 0.0 12.9 0.00 0.00 0.00 58 1018.3
20260901163056 32 84 6.4 16.1 0.00 0.00 0.00 59 1016.5
20260901163018 32 49 6.4 16.1 0.00 0.00 0.00 59 1018.3
20260901161554 32 170 8.0 14.5 0.00 0.00 0.00 60 1016.6
20260901161516 32 156 8.0 14.5 0.00 0.00 0.00 59 1018.4
20260901160059 31 0 1.6 17.7 0.00 0.00 0.00 62 1016.6
20260901160017 31 125 1.6 17.7 0.00 0.00 0.00 63 1018.4
20260901154552 31 117 9.7 16.1 0.00 0.00 0.00 64 1016.5
20260901154511 31 144 9.7 16.1 0.00 0.00 0.00 64 1018.3
20260901153103 31 211 4.8 12.9 0.00 0.00 0.00 64 1016.5
20260901153008 31 208 3.2 12.9 0.00 0.00 0.00 64 1018.1
20260901151558 30 106 4.8 12.9 0.00 0.00 0.00 67 1016.5
20260901151506 30 140 4.8 12.9 0.00 0.00 0.00 67 1018.1
20260901150053 30 127 3.2 12.9 0.00 0.00 0.00 69 1016.5
20260901150005 30 127 3.2 12.9 0.00 0.00 0.00 70 1018.2
20260901144551 30 129 1.6 11.3 0.00 0.00 0.00 72 1016.4
20260901144501 30 146 1.6 11.3 0.00 0.00 0.00 72 1018.1
20260901143113 29 140 1.6 9.7 0.00 0.00 0.00 73 1018.1
20260901143054 29 140 0.0 9.7 0.00 0.00 0.00 73 1016.4
20260901141559 29 72 1.6 8.0 0.00 0.00 0.00 76 1016.3
20260901140055 28 172 3.2 6.4 0.00 0.00 0.00 77 1018.3
20260901134618 27 0 0.0 3.2 0.00 0.00 0.00 83 1016.4
20260901133059 26 0 0.0 1.6 0.00 0.00 0.00 88 1016.2
20260901131606 25 0 0.0 1.6 0.00 0.00 0.00 93 1016.2
20260901131557 25 121 0.0 1.6 0.00 0.00 0.00 93 1017.9
20260901130059 25 0 0.0 0.0 0.00 0.00 0.00 92 1016.1
20260901130050 25 121 0.0 0.0 0.00 0.00 0.00 93 1017.7
20260901124603 24 0 0.0 1.6 0.00 0.00 0.00 92 1016.0
20260901124555 24 121 0.0 1.6 0.00 0.00 0.00 92 1017.8
20260901123053 24 0 0.0 1.6 0.00 0.00 0.00 91 1015.9
20260901123048 24 121 0.0 1.6 0.00 0.00 0.00 92 1017.6
20260901121557 25 0 0.0 0.0 0.00 0.00 0.00 91 1015.8
20260901121548 25 121 0.0 0.0 0.00 0.00 0.00 91 1017.5
20260901120059 25 0 0.0 1.6 0.00 0.00 0.00 90 1015.9
20260901120046 25 121 0.0 0.0 0.00 0.00 0.00 91 1017.6
20260901114601 25 0 0.0 3.2 0.00 0.00 0.00 90 1016.0
20260901114557 25 121 0.0 1.6 0.00 0.00 0.00 91 1017.5
20260901113054 25 113 0.0 4.8 0.00 0.00 0.00 90 1015.9
20260901113044 25 113 1.6 4.8 0.00 0.00 0.00 91 1017.5
20260901111553 25 0 0.0 0.0 0.00 0.00 0.00 89 1015.6
20260901111542 25 186 0.0 0.0 0.00 0.00 0.00 90 1017.3
20260901110100 25 0 0.0 3.2 0.00 0.00 0.00 88 1015.6
20260901110041 25 204 0.0 1.6 0.00 0.00 0.00 89 1017.4
20260901104555 26 0 0.0 4.8 0.00 0.00 0.00 87 1015.6
20260901104538 26 165 0.0 3.2 0.00 0.00 0.00 88 1017.3
20260901103103 26 213 0.0 6.4 0.00 0.00 0.00 88 1015.8
20260901103037 26 213 0.0 6.4 0.00 0.00 0.00 88 1017.4
20260901101552 26 165 1.6 8.0 0.00 0.00 0.00 87 1015.8
20260901101535 26 165 1.6 4.8 0.00 0.00 0.00 87 1017.5
20260901100057 26 0 1.6 11.3 0.00 0.00 0.00 87 1015.8
20260901100040 26 168 0.0 11.3 0.00 0.00 0.00 87 1017.5
20260901094552 26 223 1.6 9.7 0.00 0.00 0.00 87 1015.7
20260901094533 26 223 3.2 9.7 0.00 0.00 0.00 87 1017.4
20260901093102 26 203 3.2 9.7 0.00 0.00 0.00 87 1015.8
20260901093033 26 203 1.6 9.7 0.00 0.00 0.00 87 1017.5
20260901091557 26 222 1.6 12.9 0.00 0.00 0.00 87 1016.1
20260901091532 26 222 0.0 11.3 0.00 0.00 0.00 87 1017.6
20260901090052 26 186 1.6 8.0 0.00 0.00 0.00 86 1016.0
20260901090031 26 186 1.6 6.4 0.00 0.00 0.00 87 1017.6
20260901084551 26 157 3.2 16.1 0.00 0.00 0.00 86 1016.0
20260901084530 26 157 1.6 14.5 0.00 0.00 0.00 86 1017.7
20260901083059 26 168 3.2 12.9 0.00 0.00 0.00 85 1015.9
20260901083029 26 182 3.2 12.9 0.00 0.00 0.00 86 1017.5
20260901081555 26 173 4.8 16.1 0.00 0.00 0.00 85 1015.9
20260901081536 26 173 3.2 14.5 0.00 0.00 0.00 85 1017.5
20260901080054 26 0 1.6 12.9 0.00 0.00 0.00 84 1015.8
20260901080030 26 169 0.0 11.3 0.00 0.00 0.00 84 1017.5
20260901074601 26 180 1.6 14.5 0.00 0.00 0.00 83 1015.8
20260901074525 26 167 3.2 12.9 0.00 0.00 0.00 83 1017.5
20260901073101 26 142 3.2 12.9 0.00 0.00 0.00 82 1015.7
20260901073023 26 142 3.2 12.9 0.00 0.00 0.00 82 1017.5
20260901071553 27 161 4.8 12.9 0.00 0.00 0.00 81 1015.9
20260901071524 27 148 4.8 12.9 0.00 0.00 0.00 81 1017.6
20260901070020 27 90 4.8 12.9 0.00 0.00 0.00 80 1017.6
20260901064557 27 134 4.8 17.7 0.00 0.00 0.00 78 1015.7
20260901064521 27 124 4.8 16.1 0.00 0.00 0.00 79 1017.3
20260901063052 27 132 4.8 14.5 0.00 0.00 0.00 78 1015.6
20260901063027 27 202 4.8 14.5 0.00 0.00 0.00 78 1017.3
20260901061604 27 92 8.0 17.7 0.00 0.00 0.00 76 1015.7
20260901061514 27 139 6.4 17.7 0.00 0.00 0.00 77 1017.4
20260901060100 27 133 6.4 19.3 0.00 0.00 0.00 75 1015.4
20260901060011 27 107 6.4 19.3 0.00 0.00 0.00 76 1017.0
20260901054553 28 134 4.8 17.7 0.00 0.00 0.00 74 1015.4
20260901054520 28 140 3.2 16.1 0.00 0.00 0.00 74 1016.8
20260901053057 28 165 8.0 20.9 0.00 0.00 0.00 72 1015.2
20260901053009 28 194 6.4 20.9 0.00 0.00 0.00 73 1016.7
20260901051604 28 153 11.3 22.5 0.00 0.00 0.00 70 1015.3
20260901051504 28 171 9.7 22.5 0.00 0.00 0.00 71 1016.8
20260901050058 28 156 6.4 20.9 0.00 0.00 0.00 69 1015.2
20260901050002 28 146 4.8 20.9 0.00 0.00 0.00 69 1016.6
20260901044600 29 138 9.7 17.7 0.00 0.00 0.00 69 1016.6
20260901044552 29 134 9.7 20.9 0.00 0.00 0.00 68 1015.0
20260901044501 29 154 9.7 19.3 0.00 0.00 0.00 69 1016.6
20260901043102 29 132 9.7 30.6 0.00 0.00 0.00 67 1016.4
20260901043058 29 126 12.9 30.6 0.00 0.00 0.00 67 1014.9
20260901043001 29 173 12.9 30.6 0.00 0.00 0.00 67 1016.5
20260901041659 30 129 4.8 19.3 0.00 0.00 0.00 65 1016.3
20260901041551 30 149 9.7 19.3 0.00 0.00 0.00 65 1014.8
20260901040114 30 137 8.0 22.5 0.00 0.00 0.00 63 1014.6
20260901040112 30 135 9.7 19.3 0.00 0.00 0.00 64 1016.2
20260901034558 30 141 9.7 24.1 0.00 0.00 0.00 63 1016.1
20260901034554 30 167 12.9 24.1 0.00 0.00 0.00 63 1014.5
20260901033057 30 155 8.0 25.7 0.00 0.00 0.00 63 1016.1
20260901031557 31 133 14.5 29.0 0.00 0.00 0.00 62 1015.8
20260901031548 31 134 14.5 29.0 0.00 0.00 0.00 62 1014.2
20260901030056 31 94 8.0 24.1 0.00 0.00 0.00 61 1015.9
20260901030054 31 142 9.7 25.7 0.00 0.00 0.00 61 1014.1
20260901024556 32 164 12.9 27.4 0.00 0.00 0.00 59 1013.8
20260901023054 32 186 9.7 37.0 0.00 0.00 0.00 57 1013.5
20260901021556 32 155 14.5 32.2 0.00 0.00 0.00 55 1013.2
20260901020057 32 102 6.4 12.9 0.00 0.00 0.00 54 1013.0
20260901020054 32 90 4.8 12.9 0.00 0.00 0.00 55 1014.6
20260901014553 33 131 6.4 12.9 0.00 0.00 0.00 52 1014.5
20260901013113 33 136 3.2 11.3 0.00 0.00 0.00 51 1012.8
20260901013108 33 130 3.2 11.3 0.00 0.00 0.00 51 1014.3
20260901011558 33 96 4.8 14.5 0.00 0.00 0.00 50 1012.5
20260901011551 33 87 6.4 12.9 0.00 0.00 0.00 50 1014.2
20260901010052 33 101 6.4 12.9 0.00 0.00 0.00 50 1014.0
20260901010049 33 110 6.4 12.9 0.00 0.00 0.00 49 1012.5
20260901004601 33 98 3.2 14.5 0.00 0.00 0.00 48 1012.5
20260901004549 34 98 3.2 12.9 0.00 0.00 0.00 49 1013.9
20260901003052 34 92 3.2 9.7 0.00 0.00 0.00 48 1012.5
20260901003049 34 111 1.6 9.7 0.00 0.00 0.00 49 1013.9
20260901001549 35 112 4.8 16.1 0.00 0.00 0.00 48 1013.7
20260901000057 35 123 1.6 12.9 0.00 0.00 0.00 48 1012.2
20260901000048 35 85 4.8 12.9 0.00 0.00 0.00 48 1013.7
20260831234557 35 68 8.0 20.9 0.00 0.00 0.00 47 1012.2
20260831234554 35 61 9.7 20.9 0.00 0.00 0.00 47 1013.6
20260831233104 35 129 3.2 12.9 0.00 0.00 0.00 45 1012.0
20260831233047 35 120 4.8 12.9 0.00 0.00 0.00 45 1013.7
20260831231551 35 80 4.8 17.7 0.00 0.00 0.00 43 1012.1
20260831231547 35 60 4.8 14.5 0.00 0.00 0.00 44 1013.6
20260831230057 36 140 9.7 19.3 0.00 0.00 0.00 44 1012.3
20260831230044 36 119 11.3 19.3 0.00 0.00 0.00 44 1013.6
20260831224554 36 198 4.8 14.5 0.00 0.00 0.00 42 1012.3
20260831224543 36 203 4.8 11.3 0.00 0.00 0.00 42 1013.7
20260831223100 36 96 3.2 19.3 0.00 0.00 0.00 42 1012.4
20260831223044 36 144 3.2 19.3 0.00 0.00 0.00 43 1013.9
20260831221621 36 132 8.0 16.1 0.00 0.00 0.00 43 1012.5
20260831221540 36 134 8.0 16.1 0.00 0.00 0.00 43 1013.9
20260831220056 36 126 6.4 19.3 0.00 0.00 0.00 42 1012.7
20260831220039 36 123 8.0 17.7 0.00 0.00 0.00 43 1014.1
20260831214549 36 165 6.4 17.7 0.00 0.00 0.00 45 1013.0
20260831214536 36 165 6.4 17.7 0.00 0.00 0.00 45 1014.5
20260831213054 36 59 8.0 19.3 0.00 0.00 0.00 45 1013.0
20260831213033 36 92 9.7 19.3 0.00 0.00 0.00 45 1014.7
20260831211558 36 132 3.2 16.1 0.00 0.00 0.00 47 1013.2
20260831211530 36 132 3.2 16.1 0.00 0.00 0.00 48 1014.8
20260831210052 35 112 8.0 19.3 0.00 0.00 0.00 48 1013.4
20260831210029 35 133 9.7 19.3 0.00 0.00 0.00 49 1015.1
20260831204604 35 116 3.2 20.9 0.00 0.00 0.00 49 1013.6
20260831204533 35 113 8.0 16.1 0.00 0.00 0.00 50 1015.3